This is the latest recevied weather packets stored in our database for station/object N5VIS. If no packets are shown the sender has not sent any weather packets the latest 10 day(s).
| Time | Temp. | Humidity | Pressure | Rain* | Wind** | Luminosity | Snow |
|---|---|---|---|---|---|---|---|
| 1777978548 | 16.11° C | 92% | 1014.7 hPa | 0 mm | - | - | - |
| 1777978244 | 16.11° C | 92% | 1014.7 hPa | 0 mm | - | - | - |
| 1777977941 | 16.11° C | 92% | 1014.7 hPa | 0 mm | - | - | - |
| 1777977639 | 15.56° C | 92% | 1014.7 hPa | 0 mm | - | - | - |
| 1777977335 | 15.56° C | 92% | 1014.8 hPa | 0 mm | - | - | - |
| 1777977032 | 15.56° C | 92% | 1014.7 hPa | 0 mm | - | - | - |
| 1777976729 | 15° C | 89% | 1014.7 hPa | 0 mm | - | - | - |
| 1777976427 | 15.56° C | 90% | 1014.7 hPa | 0 mm | - | - | - |
| 1777976125 | 14.44° C | 91% | 1014.6 hPa | 0 mm | - | - | - |
| 1777975821 | 13.89° C | 89% | 1014.7 hPa | 0 mm | - | - | - |
| 1777975519 | 13.89° C | 90% | 1014.7 hPa | 0 mm | - | - | - |
| 1777975216 | 13.89° C | 90% | 1014.6 hPa | 0 mm | - | - | - |
| 1777974911 | 13.89° C | 90% | 1014.5 hPa | 0 mm | - | - | - |
| 1777974608 | 14.44° C | 89% | 1014.3 hPa | 0 mm | - | - | - |
| 1777974304 | 14.44° C | 88% | 1014.4 hPa | 0 mm | - | - | - |
| 1777974001 | 14.44° C | 87% | 1014.5 hPa | 0 mm | - | - | - |
| 1777973697 | 14.44° C | 87% | 1014.3 hPa | 0 mm | - | - | - |
| 1777973395 | 14.44° C | 88% | 1014.3 hPa | 0 mm | - | - | - |
| 1777973092 | 14.44° C | 88% | 1014.2 hPa | 0 mm | - | - | - |
| 1777972790 | 14.44° C | 88% | 1014.2 hPa | 0 mm | - | - | - |
| 1777972487 | 14.44° C | 88% | 1014.3 hPa | 0 mm | - | - | - |
| 1777972185 | 14.44° C | 87% | 1014 hPa | 0 mm | - | - | - |
| 1777971883 | 14.44° C | 87% | 1014.1 hPa | 0 mm | - | - | - |
| 1777971580 | 14.44° C | 86% | 1014 hPa | 0 mm | - | - | - |
| 1777971278 | 14.44° C | 87% | 1013.9 hPa | 0 mm | - | - | - |
* Rain latest hour (hover to see other rain measurements)
** Current wind speed in m/s (hover to see current wind gust speed)